Aérodrome :
LOGIN :

S'inscrire | Disclaimer

   EN    FR    IT 

 










Légende :    VFR   VFR Marginal   IFR   IFR Intensif   IFR Très Intensif
Visi : 
Plafond : 
>= 8 km
>= 3000ft
5 à 8 km
1000 à 3000 ft
1500m à 5 km
500 à 1000 ft
800 à 1500m
200 à 500 ft
< 800m
< 200 ft
Symboles :   Orages  Brouillard  Fortes neiges  Fortes précipitations  Vent > 20 kt
SIGMETs :   Divers  Orages  Givrage  Turbulence  Onde Orograph.  Cendres Volcan.






- Altitude de l'aérodrome : 106 ft
- Code IATA : XDA


LFBY - Dax Seyresse

DERNIER METAR :
  • 081200Z VRB02KT 4500 -RA FEW010 BKN036 BKN050 09/08 Q1019

METARs EXPIRÉS :
  • 081100Z 20002KT 4000 -RA FEW008 BKN030 BKN043 09/07 Q1019
  • 081000Z VRB02KT 4500 -RA FEW016 BKN033 BKN043 08/07 Q1019

TAF TAF LFBY
Valide du 08 à 09h jusqu'au 08 à 18h UTC


080830Z 0809/0818 VRB03KT 8000 SCT030 BKN040
TEMPO 0809/0812 4000 -RA SCT014
TEMPO 0813/0818 4500 SHRA SCT020TCU



MET'MAP, la Météo Aéronautique d'un coup d'oeil ! - Copyright ORBIFLY Décembre 2007 - Disclaimer

ORBIFLY MET'MAP TEAM :

Programmation & Développement : Alexandra Zaïnal
Sur une idée originale de : Baudouin d'Aumeries
Assistance à la programmation : Marc-Olivier Méhu
Soutien technique & logistique : Manuel Goepfert

Contact : metmap@orbifly.com




SOURCES & CREDITS :

   NOAA